Lewistown, MT

9:27 AM MST on February 20, 2017 (GMT -0700)
Lewistown Municipal

Weather History for KLWT - June, 2014

Change the Weather History Date:

Thursday, June 26, 2014

  Actual Average Record
Temperature  
Mean Temperature 63 °F 61 °F  
Max Temperature 73 °F 75 °F 99 °F (1919)
Min Temperature 52 °F 47 °F 33 °F (1989)
Degree Days  
Heating Degree Days 2 5  
Month to date heating degree days 264 207  
Since 1 June heating degree days 264 207  
Since 1 July heating degree days 8612 8181  
Cooling Degree Days 0 1  
Month to date cooling degree days 1 12  
Year to date cooling degree days 1 14  
Since 1 June cooling degree days 1 12  
Growing Degree Days 12 (Base 50)    
Moisture  
Dew Point 54 °F    
Average Humidity 73    
Maximum Humidity 93    
Minimum Humidity 53    
Precipitation  
Precipitation T in 0.08 in 1.45 in (1914)
Month to date precipitation 2.50 2.75  
Year to date precipitation 7.96 9.01  
Snow  
Snow 0.00 in - - ()
Snow Depth 0.00 in    
Sea Level Pressure  
Sea Level Pressure 29.72 in    
Wind  
Wind Speed 6 mph (West)    
Max Wind Speed 22 mph    
Max Gust Speed 27 mph    
Visibility 10 miles    
Events Rain    
T = Trace of Precipitation, MM = Missing Value Source: NWS Daily Summary

Daily Weather History Graph

Daily Weather History Graph

Search for Another Location

Airport or City:

Trip Planner

Search our weather history database for the weather conditions in past years. The results will help you decide how hot, cold, wet, or windy it might be!

Date:

Astronomy

Jun. 26, 2014 Rise Set
Actual Time 5:24 AM MDT 9:17 PM MDT
Civil Twilight 4:44 AM MDT 9:57 PM MDT
Nautical Twilight 3:49 AM MDT 10:51 PM MDT
Astronomical Twilight 2:27 AM MDT 12:13 AM MDT
Moon 5:12 AM MDT (6/26) 8:34 PM MDT (6/26)
Length of Visible Light 17h 12m
Length of Day
15h 53m
Waning Crescent, 0% of the Moon is Illuminated
Jun 26
Waning Crescent
Jun 27
New
Jul 5
First Quarter
Jul 12
Full
Jul 18
Last Quarter

Hourly Weather History & Observations

Time (MDT) Temp. Dew Point Humidity Pressure Visibility Wind Dir Wind Speed Gust Speed Precip Events Conditions
12:54 AM 60.1 °F 52.0 °F 75% 29.77 in 10.0 mi Calm Calm - N/A   Scattered Clouds
1:54 AM 57.9 °F 52.0 °F 81% 29.77 in 10.0 mi South 3.5 mph - N/A   Partly Cloudy
2:54 AM 57.0 °F 51.1 °F 81% 29.75 in 10.0 mi Calm Calm - N/A   Clear
3:54 AM 54.0 °F 50.0 °F 86% 29.74 in 10.0 mi SE 6.9 mph - N/A   Clear
4:54 AM 53.1 °F 48.9 °F 86% 29.73 in 10.0 mi SE 5.8 mph - N/A   Scattered Clouds
5:54 AM 53.1 °F 48.0 °F 83% 29.73 in 10.0 mi ESE 3.5 mph - N/A   Partly Cloudy
6:54 AM 55.0 °F 48.9 °F 80% 29.73 in 10.0 mi West 3.5 mph - N/A   Scattered Clouds
7:54 AM 57.9 °F 52.0 °F 81% 29.73 in 10.0 mi Calm Calm - 0.00 in Rain Light Rain
8:54 AM 61.0 °F 53.1 °F 75% 29.70 in 10.0 mi East 5.8 mph - 0.00 in   Clear
9:54 AM 64.0 °F 54.0 °F 70% 29.68 in 10.0 mi East 4.6 mph - N/A   Mostly Cloudy
10:54 AM 66.0 °F 54.0 °F 65% 29.68 in 10.0 mi NE 3.5 mph - N/A   Mostly Cloudy
11:54 AM 68.0 °F 55.0 °F 63% 29.69 in 10.0 mi SE 6.9 mph - N/A   Mostly Cloudy
12:54 PM 69.1 °F 55.0 °F 61% 29.67 in 10.0 mi Calm Calm - N/A   Clear
1:54 PM 69.1 °F 55.0 °F 61% 29.66 in 10.0 mi WNW 4.6 mph - N/A   Partly Cloudy
2:54 PM 72.0 °F 55.9 °F 57% 29.64 in 10.0 mi Variable 3.5 mph - N/A   Scattered Clouds
3:08 PM 71.1 °F 54.0 °F 55% 29.72 in 10.0 mi East 4.6 mph - N/A   Mostly Cloudy
3:28 PM 72.0 °F 55.0 °F 55% 29.73 in 10.0 mi Variable 3.5 mph - N/A   Mostly Cloudy
3:54 PM 71.1 °F 54.0 °F 55% 29.64 in 10.0 mi NW 5.8 mph - N/A   Scattered Clouds
4:54 PM 69.1 °F 55.9 °F 63% 29.65 in 10.0 mi NW 9.2 mph - N/A   Clear
5:54 PM 66.9 °F 57.0 °F 70% 29.68 in 10.0 mi West 16.1 mph - 0.00 in   Mostly Cloudy
6:54 PM 62.1 °F 50.0 °F 65% 29.68 in 10.0 mi NNW 9.2 mph 19.6 mph 0.00 in   Mostly Cloudy
7:54 PM 62.1 °F 54.0 °F 75% 29.70 in 10.0 mi West 11.5 mph - N/A   Partly Cloudy
8:54 PM 62.1 °F 55.9 °F 80% 29.69 in 10.0 mi West 8.1 mph - N/A   Overcast
9:54 PM 59.0 °F 55.9 °F 90% 29.69 in 10.0 mi East 3.5 mph - N/A   Scattered Clouds
10:03 PM 59.0 °F 55.9 °F 90% 29.77 in 10.0 mi Calm Calm - N/A   Mostly Cloudy
10:10 PM 59.0 °F 55.0 °F 87% 29.78 in 10.0 mi Calm Calm - N/A   Mostly Cloudy
10:25 PM 57.9 °F 55.0 °F 90% 29.78 in 10.0 mi South 4.6 mph - N/A   Scattered Clouds
10:54 PM 55.9 °F 53.1 °F 90% 29.71 in 10.0 mi SW 5.8 mph - N/A   Clear
11:14 PM 59.0 °F 55.9 °F 90% 29.79 in 10.0 mi West 6.9 mph - N/A   Mostly Cloudy
11:26 PM 59.0 °F 55.9 °F 90% 29.79 in 10.0 mi WNW 11.5 mph - N/A   Overcast
11:35 PM 57.9 °F 55.0 °F 90% 29.79 in 10.0 mi WNW 10.4 mph 19.6 mph N/A   Overcast
11:44 PM 57.9 °F 55.0 °F 90% 29.78 in 10.0 mi NW 8.1 mph - N/A   Overcast
11:54 PM 57.0 °F 54.0 °F 89% 29.70 in 10.0 mi WNW 10.4 mph - N/A   Overcast